Skip Page Navigation
NASA JPL Caltech
NASA Logo - Jet Propulsion Laboratory + View the NASA Portal
+ Center for Near-Earth Object Studies
JPL Home Earth Solar System Stars & Galaxies Technology
JPL Solar System Dynamics
BODIES ORBITS EPHEMERIDES TOOLS PHYSICAL DATA DISCOVERY FAQ SITE MAP
IMPORTANT: The SSD Announcement email list is now available. Major changes are coming in the near future, including possible hostname and/or URL changes. To be notified of such changes, subscribe to this email list.

Please visit this page for more details.


JPL Small-Body Database Browser
Search: [ help ]  
351818 (2006 PP7)
Classification: Main-belt Asteroid          SPK-ID: 2351818
Ephemeris | Orbit Diagram | Orbital Elements | Mission Design | Physical Parameters | Discovery Circumstances | Close-Approach Data ]

[ show orbit diagram ]
Orbital Elements at Epoch 2458600.5 (2019-Apr-27.0) TDB
Reference: JPL 11 (heliocentric ecliptic J2000)
 Element Value Uncertainty (1-sigma)   Units 
e .05922066892807981 6.2957e-08  
a 2.664657423384456 3.0684e-08 au
q 2.506854628307455 1.5769e-07 au
i 8.751721898858952 7.6975e-06 deg
node 326.1858614743514 3.4611e-05 deg
peri 264.2706638724854 7.4729e-05 deg
M 54.38209105614077 6.4659e-05 deg
tp 2458360.498529381968
(2018-Aug-29.99852938)
0.00028541 TDB
period 1588.768062141942
4.35
2.7442e-05
7.513e-08
d
yr
n .2265906576159745 3.9138e-09 deg/d
Q 2.822460218461458 3.2501e-08 au
  Orbit Determination Parameters
   # obs. used (total)      196  
   data-arc span      6216 days (17.02 yr)  
   first obs. used      2002-09-11  
   last obs. used      2019-09-18  
   planetary ephem.      DE431  
   SB-pert. ephem.      SB431-N16  
   condition code      0  
   norm. resid. RMS      .59895  
   source      ORB  
   producer      Otto Matic  
   solution date      2019-Sep-24 06:37:20  

Additional Information
 Earth MOID = 1.5157 au 
 Jupiter MOID = 2.22546 au 
 T_jup = 3.365 
[ show covariance matrix ]

Ephemeris | Orbit Diagram | Orbital Elements | Mission Design | Physical Parameters | Discovery Circumstances | Close-Approach Data ]

Physical Parameter Table
Parameter Symbol Value Units Sigma Reference Notes
absolute magnitude H 16.3   n/a MPO434219  

351818 (2006 PP7)          Discovered 2006-Aug-12 by NEAT at Palomar
Reference: 20130127/Numbers.arcLast Updated: 2013-01-31

[ show close-approach data ]
Alternate Designations
 2006 PP7 = 2009 DR77 
Ephemeris | Orbit Diagram | Orbital Elements | Mission Design | Physical Parameters | Discovery Circumstances | Close-Approach Data ]
ABOUT SSD CREDITS/AWARDS PRIVACY/COPYRIGHT GLOSSARY LINKS
FirstGov
(server date/time)  
NASA Home Page
Site Manager:   Ryan S. Park
Webmaster  Alan B. Chamberlin